When you browse on this site, cookies collect data to enhance your experience and personalize the content and advertising you see.
Visit our Privacy Policy to learn more. By continuing to use the site, you agree to this use of cookies and data.
  • In Österreich
  • Länderverzeichnis
  • Für 7 Tage
  • Wassertemperatur
  • Satellitenkarten
  • Wetterkarte
  • News
  • Widgets
  • user-avatar
    Anmelden

    Stündliche Wetter Marianowo

    Heute, 16 Februar, Samstag

    Zeit Temperatur Niederschläge Wind Luftdruck Luftfeuchtigkeit
    00:00 +4°C° 0 mm 1 m/S 767 mmHg 79%
    01:00 +4°C° 0 mm 1 m/S 767 mmHg 78%
    02:00 +4°C° 0 mm 1 m/S 767 mmHg 77%
    03:00 +3°C° 0 mm 2 m/S 766 mmHg 77%
    04:00 +3°C° 0 mm 2 m/S 766 mmHg 77%
    05:00 +3°C° 0 mm 2 m/S 766 mmHg 77%
    06:00 +3°C° 0 mm 2 m/S 766 mmHg 77%
    07:00 +2°C° 0 mm 2 m/S 765 mmHg 76%
    08:00 +3°C° 0 mm 3 m/S 765 mmHg 70%
    09:00 +4°C° 0 mm 3 m/S 765 mmHg 64%
    10:00 +7°C° 0 mm 3 m/S 765 mmHg 59%
    11:00 +8°C° 0 mm 3 m/S 764 mmHg 54%
    12:00 +10°C° 0 mm 4 m/S 764 mmHg 50%
    13:00 +13°C° 0 mm 3 m/S 764 mmHg 45%
    14:00 +12°C° 0 mm 3 m/S 764 mmHg 47%
    15:00 +12°C° 0 mm 3 m/S 763 mmHg 49%
    16:00 +12°C° 0 mm 3 m/S 763 mmHg 50%
    17:00 +10°C° 0 mm 3 m/S 763 mmHg 56%
    18:00 +9°C° 0 mm 3 m/S 763 mmHg 62%
    19:00 +8°C° 0 mm 3 m/S 763 mmHg 68%
    20:00 +7°C° 0 mm 3 m/S 763 mmHg 70%
    21:00 +7°C° 0 mm 3 m/S 763 mmHg 72%
    22:00 +5°C° 0 mm 3 m/S 763 mmHg 74%
    23:00 +5°C° 0 mm 3 m/S 763 mmHg 77%

    Morgen, 17 Februar, Sonntag

    Zeit Temperatur Niederschläge Wind Luftdruck Luftfeuchtigkeit
    00:00 +4°C° 0 mm 3 m/S 763 mmHg 80%
    01:00 +4°C° 0 mm 3 m/S 763 mmHg 82%
    02:00 +3°C° 0 mm 3 m/S 763 mmHg 84%
    03:00 +3°C° 0 mm 3 m/S 763 mmHg 86%
    04:00 +2°C° 0 mm 3 m/S 763 mmHg 88%
    05:00 +3°C° 0 mm 2 m/S 763 mmHg 89%
    06:00 +3°C° 0 mm 2 m/S 763 mmHg 90%
    07:00 +3°C° 0 mm 2 m/S 763 mmHg 91%
    08:00 +4°C° 0 mm 2 m/S 763 mmHg 85%
    09:00 +5°C° 0 mm 2 m/S 763 mmHg 80%
    10:00 +6°C° 0 mm 2 m/S 763 mmHg 74%
    11:00 +8°C° 0 mm 2 m/S 763 mmHg 69%
    12:00 +9°C° 0 mm 2 m/S 763 mmHg 64%
    13:00 +10°C° 0 mm 2 m/S 763 mmHg 59%
    14:00 +10°C° 0 mm 2 m/S 763 mmHg 60%
    15:00 +11°C° 0 mm 1 m/S 763 mmHg 61%
    16:00 +11°C° 0 mm 1 m/S 762 mmHg 62%
    17:00 +10°C° 0 mm 1 m/S 762 mmHg 66%
    18:00 +9°C° 0 mm 1 m/S 762 mmHg 70%
    19:00 +8°C° 0 mm 1 m/S 762 mmHg 73%
    20:00 +7°C° 0 mm 1 m/S 762 mmHg 75%
    21:00 +7°C° 0 mm 1 m/S 762 mmHg 76%
    22:00 +6°C° 0 mm 1 m/S 762 mmHg 77%
    23:00 +5°C° 0 mm 2 m/S 762 mmHg 78%

    übermorgen, 18 Februar, Montag

    Zeit Temperatur Niederschläge Wind Luftdruck Luftfeuchtigkeit
    00:00 +5°C° 0 mm 2 m/S 762 mmHg 78%
    01:00 +4°C° 0 mm 2 m/S 762 mmHg 79%
    02:00 +4°C° 0 mm 2 m/S 762 mmHg 79%
    03:00 +4°C° 0 mm 2 m/S 761 mmHg 78%
    04:00 +3°C° 0 mm 2 m/S 761 mmHg 78%
    05:00 +3°C° 0 mm 2 m/S 761 mmHg 78%
    06:00 +3°C° 0 mm 2 m/S 761 mmHg 79%
    07:00 +2°C° 0 mm 2 m/S 761 mmHg 80%
    08:00 +4°C° 0 mm 2 m/S 761 mmHg 74%
    09:00 +5°C° 0 mm 2 m/S 761 mmHg 68%
    10:00 +6°C° 0 mm 2 m/S 761 mmHg 63%
    11:00 +8°C° 0 mm 2 m/S 760 mmHg 58%
    12:00 +9°C° 0 mm 2 m/S 760 mmHg 53%
    13:00 +12°C° 0 mm 2 m/S 760 mmHg 48%
    14:00 +12°C° 0 mm 2 m/S 760 mmHg 50%
    15:00 +12°C° 0 mm 2 m/S 759 mmHg 51%
    16:00 +12°C° 0 mm 2 m/S 759 mmHg 52%
    17:00 +9°C° 0 mm 2 m/S 759 mmHg 57%
    18:00 +8°C° 0 mm 2 m/S 759 mmHg 61%
    19:00 +7°C° 0 mm 2 m/S 759 mmHg 66%
    20:00 +6°C° 0 mm 2 m/S 759 mmHg 68%
    21:00 +6°C° 0 mm 2 m/S 758 mmHg 70%
    22:00 +5°C° 0 mm 2 m/S 758 mmHg 72%
    23:00 +4°C° 0 mm 3 m/S 758 mmHg 72%

    19 Februar, Dienstag

    Zeit Temperatur Niederschläge Wind Luftdruck Luftfeuchtigkeit
    00:00 +4°C° 0 mm 3 m/S 758 mmHg 73%
    01:00 +3°C° 0 mm 3 m/S 758 mmHg 74%
    02:00 +3°C° 0 mm 3 m/S 758 mmHg 76%
    03:00 +3°C° 0 mm 3 m/S 757 mmHg 78%
    04:00 +3°C° 0 mm 3 m/S 757 mmHg 81%
    05:00 +3°C° 0 mm 3 m/S 757 mmHg 80%
    06:00 +2°C° 0 mm 3 m/S 757 mmHg 80%
    07:00 +2°C° 0 mm 3 m/S 756 mmHg 79%
    08:00 +4°C° 0 mm 4 m/S 756 mmHg 73%
    09:00 +5°C° 0 mm 4 m/S 756 mmHg 66%
    10:00 +6°C° 0 mm 5 m/S 756 mmHg 60%
    11:00 +7°C° 0 mm 5 m/S 756 mmHg 58%
    12:00 +9°C° 0 mm 5 m/S 756 mmHg 55%
    13:00 +10°C° 0 mm 6 m/S 755 mmHg 53%
    14:00 +9°C° 0.2 mm 6 m/S 755 mmHg 61%
    15:00 +8°C° 0.2 mm 6 m/S 755 mmHg 69%
    16:00 +7°C° 0.2 mm 6 m/S 755 mmHg 77%
    17:00 +7°C° 0.1 mm 5 m/S 756 mmHg 79%
    18:00 +6°C° 0.1 mm 4 m/S 756 mmHg 81%
    19:00 +5°C° 0.1 mm 4 m/S 756 mmHg 84%
    20:00 +5°C° 0 mm 4 m/S 757 mmHg 84%
    21:00 +5°C° 0 mm 4 m/S 757 mmHg 84%
    22:00 +4°C° 0 mm 4 m/S 758 mmHg 85%
    23:00 +4°C° 0 mm 4 m/S 758 mmHg 85%

    20 Februar, Mittwoch

    Zeit Temperatur Niederschläge Wind Luftdruck Luftfeuchtigkeit
    00:00 +4°C° 0 mm 4 m/S 758 mmHg 86%
    01:00 +3°C° 0 mm 4 m/S 758 mmHg 86%
    02:00 +3°C° 0 mm 4 m/S 758 mmHg 88%
    03:00 +3°C° 0 mm 4 m/S 758 mmHg 89%
    04:00 +1°C° 0 mm 4 m/S 759 mmHg 91%
    05:00 +1°C° 0 mm 4 m/S 759 mmHg 91%
    06:00 +1°C° 0 mm 4 m/S 759 mmHg 91%
    07:00 +1°C° 0 mm 4 m/S 759 mmHg 91%
    08:00 +2°C° 0 mm 5 m/S 760 mmHg 87%
    09:00 +2°C° 0 mm 5 m/S 760 mmHg 83%
    10:00 +3°C° 0 mm 5 m/S 761 mmHg 79%
    11:00 +5°C° 0 mm 5 m/S 761 mmHg 74%
    12:00 +6°C° 0 mm 5 m/S 761 mmHg 70%
    13:00 +7°C° 0 mm 5 m/S 761 mmHg 65%
    14:00 +7°C° 0 mm 5 m/S 761 mmHg 67%
    15:00 +7°C° 0 mm 4 m/S 761 mmHg 68%
    16:00 +7°C° 0 mm 4 m/S 761 mmHg 69%
    17:00 +7°C° 0 mm 3 m/S 761 mmHg 73%
    18:00 +7°C° 0 mm 3 m/S 762 mmHg 76%
    19:00 +7°C° 0 mm 3 m/S 762 mmHg 80%
    20:00 +5°C° 0 mm 3 m/S 762 mmHg 82%
    21:00 +5°C° 0 mm 3 m/S 762 mmHg 84%
    22:00 +4°C° 0 mm 3 m/S 762 mmHg 86%
    23:00 +4°C° 0 mm 3 m/S 762 mmHg 87%

    21 Februar, Donnerstag

    Zeit Temperatur Niederschläge Wind Luftdruck Luftfeuchtigkeit
    00:00 +4°C° 0 mm 3 m/S 762 mmHg 88%
    01:00 +4°C° 0 mm 3 m/S 762 mmHg 89%
    02:00 +4°C° 0.2 mm 3 m/S 762 mmHg 89%
    03:00 +4°C° 0.2 mm 3 m/S 762 mmHg 89%
    04:00 +4°C° 0.2 mm 3 m/S 762 mmHg 90%
    05:00 +4°C° 0.2 mm 3 m/S 762 mmHg 89%
    06:00 +4°C° 0.2 mm 3 m/S 762 mmHg 89%
    07:00 +4°C° 0.2 mm 3 m/S 762 mmHg 89%
    08:00 +5°C° 0 mm 3 m/S 762 mmHg 85%
    09:00 +5°C° 0 mm 4 m/S 762 mmHg 81%
    10:00 +6°C° 0 mm 4 m/S 762 mmHg 77%
    11:00 +7°C° 0 mm 4 m/S 761 mmHg 75%
    12:00 +7°C° 0 mm 4 m/S 761 mmHg 73%
    13:00 +8°C° 0 mm 5 m/S 761 mmHg 71%
    14:00 +7°C° 0.3 mm 5 m/S 761 mmHg 76%
    15:00 +7°C° 0.3 mm 5 m/S 761 mmHg 80%
    16:00 +7°C° 0.3 mm 5 m/S 761 mmHg 85%
    17:00 +7°C° 0.3 mm 4 m/S 761 mmHg 86%
    18:00 +6°C° 0.3 mm 4 m/S 761 mmHg 87%
    19:00 +6°C° 0.3 mm 4 m/S 761 mmHg 88%
    20:00 +6°C° 0.1 mm 4 m/S 761 mmHg 89%
    21:00 +6°C° 0.1 mm 4 m/S 761 mmHg 90%
    22:00 +6°C° 0.1 mm 4 m/S 761 mmHg 91%
    23:00 +6°C° 0.8 mm 4 m/S 761 mmHg 91%
    Mehr zeigen